Regional Weather Roundup
Issued by NWS Little Rock, AR

Home | Current Version | Previous Version | Text Only | Print | Product List | Glossary Off
Versions: 1 2 3 4 5 6 7 8 9 10 11 12 13 14 15 16 17 18 19 20 21 22 23 24 25 26 27 28 29 30 31 32 33 34 35 36 37 38 39 40 41 42 43 44 45 46 47 48 49 50

000
ASUS44 KLZK 190612
RWRLZK

WEATHER ROUNDUP FOR ARKANSAS
NATIONAL WEATHER SERVICE LITTLE ROCK AR
1200 AM CST SUN NOV 19 2017

NOTE: "FAIR" INDICATES FEW OR NO CLOUDS BELOW 12,000 FEET WITH NO
SIGNIFICANT WEATHER AND/OR OBSTRUCTIONS TO VISIBILITY.

ARZ001-003-010-029-190700-
NORTHWEST ARKANSAS

CITY           SKY/WX    TMP DP  RH WIND       PRES   REMARKS
FAYETTEVILLE   CLEAR     41  33  73 CALM      30.21S
6HR MIN TEMP:  37; 6HR MAX TEMP:  43;

FORT SMITH     PTCLDY    38  32  79 W8        30.23R
6HR MIN TEMP:  38; 6HR MAX TEMP:  49;

HARRISON       CLEAR     40  32  73 NW8       30.17R
6HR MIN TEMP:  40; 6HR MAX TEMP:  43;

BENTONVILLE    CLEAR     41  30  65 N6        30.23R
6HR MIN TEMP:  39; 6HR MAX TEMP:  44;

ROGERS         CLEAR     39  31  72 NW6       30.22R
6HR MIN TEMP:  39; 6HR MAX TEMP:  44;

SILOAM SPGS    CLEAR     37  32  82 NW6       30.24R
6HR MIN TEMP:  36; 6HR MAX TEMP:  43;

HIGHFILL       CLEAR     39  32  76 NW7       30.22R
6HR MIN TEMP:  39; 6HR MAX TEMP:  44;

$$

ARZ004-005-016-190700-
NORTH CENTRAL ARKANSAS

CITY           SKY/WX    TMP DP  RH WIND       PRES   REMARKS
BATESVILLE     CLEAR     45  31  58 NW8       30.15R
6HR MIN TEMP:  45; 6HR MAX TEMP:  49;

FLIPPIN        CLEAR     45  31  58 NW10      30.17R
6HR MIN TEMP:  44; 6HR MAX TEMP:  47;

MTN HOME       CLEAR     42  32  67 VRB6      30.15R
6HR MIN TEMP:  42; 6HR MAX TEMP:  46;

$$

ARZ040-041-190700-
WEST CENTRAL ARKANSAS

CITY           SKY/WX    TMP DP  RH WIND       PRES   REMARKS
MENA           CLEAR     46  34  61 W5        30.22R
MOUNT IDA      CLEAR     40  35  83 CALM      30.18R
6HR MIN TEMP:  39; 6HR MAX TEMP:  50;

$$

ARZ009-017-025-026-028-190700-
NORTHEAST ARKANSAS

CITY           SKY/WX    TMP DP  RH WIND       PRES   REMARKS
CORNING        FAIR      41  34  75 NW7       30.11R
JONESBORO      CLEAR     45  35  68 NW7       30.11R
6HR MIN TEMP:  45; 6HR MAX TEMP:  51;

NEWPORT        CLEAR     44  33  65 NW12      30.14R
6HR MIN TEMP:  44; 6HR MAX TEMP:  50;

WALNUT RIDGE     N/A     42  34  73 W10       30.12R
6HR MIN TEMP:  42; 6HR MAX TEMP:  49;

BLYTHEVILLE    CLEAR     42  37  82 NW9       30.10R
6HR MIN TEMP:  41; 6HR MAX TEMP:  48;

$$

ARZ022-023-033-042-044-190700-
CENTRAL ARKANSAS

CITY           SKY/WX    TMP DP  RH WIND       PRES   REMARKS
LITTLE ROCK    CLEAR     42  33  70 W6        30.20R
6HR MIN TEMP:  42; 6HR MAX TEMP:  52;

N LITTLE ROCK    N/A     44  33  64 W5        30.19R
6HR MIN TEMP:  44; 6HR MAX TEMP:  51;

JACKSONVILLE   CLEAR     39  32  78 W3        30.18R
6HR MIN TEMP:  39; 6HR MAX TEMP:  52;

SEARCY         CLEAR     47  32  56 NW5       30.18R
6HR MIN TEMP:  46; 6HR MAX TEMP:  52;

HOT SPRINGS    CLEAR     46  34  62 W3        30.21R
6HR MIN TEMP:  45; 6HR MAX TEMP:  53;

RUSSELLVILLE   CLEAR     37  34  89 CALM      30.19R
6HR MIN TEMP:  37; 6HR MAX TEMP:  50;

CLINTON        FAIR      48  30  49 VRB6      30.17R
$$

ARZ036-190700-
EAST ARKANSAS

CITY           SKY/WX    TMP DP  RH WIND       PRES   REMARKS
WEST MEMPHIS   CLEAR     44  37  76 NW3       30.12R
6HR MIN TEMP:  44; 6HR MAX TEMP:  51;

$$

ARZ050-053-066-070-073-190700-
SOUTHWEST ARKANSAS

CITY           SKY/WX    TMP DP  RH WIND       PRES   REMARKS
ARKADELPHIA    FAIR      36  32  85 SW3       30.23R
6HR MIN TEMP:  36; 6HR MAX TEMP:  54;

CAMDEN         CLEAR     45  32  61 NW5       30.22R
TEXARKANA      CLEAR     45  35  68 NW6       30.24R
6HR MIN TEMP:  44; 6HR MAX TEMP:  53;

EL DORADO      PTCLDY    45  36  70 NW6       30.22R
6HR MIN TEMP:  45; 6HR MAX TEMP:  57; 6HR PCP: TRACE;

DE QUEEN       CLEAR     36  35  96 CALM      30.23R
6HR MIN TEMP:  36; 6HR MAX TEMP:  52; 6HR PCP: TRACE;

$$

ARZ056-057-069-190700-
SOUTHEAST ARKANSAS

CITY           SKY/WX    TMP DP  RH WIND       PRES   REMARKS
PINE BLUFF     CLEAR     45  33  63 NW9       30.19R
6HR MIN TEMP:  45; 6HR MAX TEMP:  54;

STUTTGART      CLEAR     45  34  65 NW9       30.18R
6HR MIN TEMP:  44; 6HR MAX TEMP:  52;

MONTICELLO     CLEAR     47  35  63 NW7       30.18R
6HR MIN TEMP:  47; 6HR MAX TEMP:  57;


$$





USA.gov is the U.S. government's official web portal to all federal, state and local government web resources and services.